TAM3474 SBVT-SBCF

Flight info

Callsign TAM3474
Flight time N/A
Altitude 30000
Route OPLOX UZ34 NIPDA
Aircraft A320/M-SDE3FGHIRWY/LB1

Departure

Time 2026-04-20 22:35
Airport Eurico de Aguiar Salles International Airport (SBVT)

Arrival

Time N/A
Airport Tancredo Neves International Airport (SBCF)
Time Latitude Longitude Altitude Speed Heading
2026-04-20 22:14 -20.26460 -40.28181 18 ft 0 kts 262°
2026-04-20 22:24 -20.26457 -40.28156 18 ft 4 kts 264°
2026-04-20 22:25 -20.26454 -40.28128 18 ft 4 kts 266°
2026-04-20 22:25 -20.26453 -40.28099 18 ft 4 kts 271°
2026-04-20 22:25 -20.26455 -40.28070 18 ft 4 kts 282°
2026-04-20 22:25 -20.26464 -40.28046 19 ft 4 kts 325°
2026-04-20 22:26 -20.26474 -40.28041 22 ft 1 kts 352°
2026-04-20 22:26 -20.26476 -40.28041 22 ft 0 kts 352°
2026-04-20 22:28 -20.26474 -40.28041 22 ft 1 kts 352°
2026-04-20 22:28 -20.26455 -40.28044 19 ft 4 kts 353°
2026-04-20 22:29 -20.26419 -40.28050 18 ft 7 kts 351°
2026-04-20 22:29 -20.26365 -40.28058 18 ft 9 kts 352°
2026-04-20 22:29 -20.26302 -40.28067 18 ft 9 kts 352°
2026-04-20 22:29 -20.26247 -40.28075 20 ft 7 kts 352°
2026-04-20 22:30 -20.26200 -40.28082 18 ft 6 kts 352°
2026-04-20 22:30 -20.26161 -40.28088 18 ft 5 kts 352°
2026-04-20 22:30 -20.26128 -40.28092 19 ft 4 kts 352°
2026-04-20 22:30 -20.26104 -40.28096 18 ft 3 kts 352°
2026-04-20 22:31 -20.26087 -40.28098 18 ft 2 kts 352°
2026-04-20 22:31 -20.26073 -40.28100 18 ft 2 kts 352°
2026-04-20 22:31 -20.26017 -40.28108 18 ft 13 kts 351°
2026-04-20 22:31 -20.25896 -40.28127 18 ft 22 kts 352°
2026-04-20 22:32 -20.25724 -40.28153 20 ft 26 kts 352°
2026-04-20 22:32 -20.25537 -40.28180 18 ft 28 kts 353°
2026-04-20 22:32 -20.25373 -40.28192 18 ft 21 kts 14°
2026-04-20 22:32 -20.25302 -40.28153 19 ft 8 kts 32°
2026-04-20 22:33 -20.25261 -40.28125 19 ft 6 kts 32°
2026-04-20 22:33 -20.25231 -40.28106 19 ft 4 kts 29°
2026-04-20 22:33 -20.25206 -40.28091 21 ft 4 kts 30°
2026-04-20 22:33 -20.25183 -40.28072 19 ft 2 kts 69°
2026-04-20 22:34 -20.25193 -40.28059 20 ft 0 kts 167°
2026-04-20 22:34 -20.25195 -40.28058 20 ft 4 kts 168°
2026-04-20 22:34 -20.25494 -40.28010 21 ft 84 kts 172°
2026-04-20 22:34 -20.26287 -40.27896 23 ft 147 kts 173°
2026-04-20 22:35 -20.27366 -40.27767 523 ft 159 kts 175°
2026-04-20 22:35 -20.28532 -40.27616 960 ft 179 kts 173°
2026-04-20 22:35 -20.29841 -40.27414 1270 ft 202 kts 172°
2026-04-20 22:35 -20.31318 -40.27182 1660 ft 226 kts 171°
2026-04-20 22:36 -20.32953 -40.26932 2162 ft 247 kts 172°
2026-04-20 22:36 -20.34679 -40.26672 3001 ft 253 kts 172°
2026-04-20 22:36 -20.36435 -40.26731 3860 ft 258 kts 198°
2026-04-20 22:36 -20.37893 -40.27835 4709 ft 264 kts 233°
2026-04-20 22:37 -20.38502 -40.29679 5552 ft 271 kts 268°
2026-04-20 22:37 -20.38043 -40.31617 6508 ft 275 kts 296°
2026-04-20 22:37 -20.36989 -40.33322 7397 ft 277 kts 305°
2026-04-20 22:37 -20.35792 -40.34937 8263 ft 278 kts 306°
2026-04-20 22:38 -20.34615 -40.36578 9129 ft 280 kts 303°
2026-04-20 22:38 -20.33502 -40.38291 9931 ft 283 kts 301°
2026-04-20 22:38 -20.32436 -40.40088 10426 ft 296 kts 298°
2026-04-20 22:38 -20.31348 -40.42051 10655 ft 319 kts 297°
2026-04-20 22:39 -20.30235 -40.44152 11109 ft 330 kts 297°
2026-04-20 22:39 -20.29108 -40.46313 11744 ft 336 kts 296°
2026-04-20 22:39 -20.27972 -40.48509 12381 ft 342 kts 297°
2026-04-20 22:39 -20.26814 -40.50747 12995 ft 347 kts 297°
2026-04-20 22:40 -20.25635 -40.53017 13625 ft 352 kts 297°
2026-04-20 22:40 -20.24326 -40.55246 14188 ft 359 kts 306°
2026-04-20 22:40 -20.22714 -40.57297 14742 ft 363 kts 308°
2026-04-20 22:40 -20.21078 -40.59359 15341 ft 366 kts 308°
2026-04-20 22:41 -20.19429 -40.61435 15929 ft 369 kts 308°
2026-04-20 22:41 -20.17768 -40.63530 16504 ft 372 kts 308°
2026-04-20 22:41 -20.16088 -40.65644 17099 ft 375 kts 308°
2026-04-20 22:41 -20.14396 -40.67776 17687 ft 378 kts 308°
2026-04-20 22:42 -20.12691 -40.69921 18246 ft 382 kts 308°
2026-04-20 22:42 -20.10968 -40.72090 18739 ft 385 kts 308°
2026-04-20 22:42 -20.09254 -40.74241 19202 ft 388 kts 308°
2026-04-20 22:42 -20.07503 -40.76446 19668 ft 392 kts 308°
2026-04-20 22:43 -20.05735 -40.78670 20134 ft 395 kts 308°
2026-04-20 22:43 -20.03953 -40.80909 20597 ft 398 kts 308°
2026-04-20 22:43 -20.02156 -40.83172 21027 ft 402 kts 308°
2026-04-20 22:43 -20.00345 -40.85445 21478 ft 405 kts 308°
2026-04-20 22:44 -19.98514 -40.87733 21920 ft 408 kts 308°
2026-04-20 22:44 -19.96673 -40.90041 22373 ft 411 kts 307°
2026-04-20 22:44 -19.94817 -40.92363 22784 ft 414 kts 307°
2026-04-20 22:44 -19.92946 -40.94703 23187 ft 417 kts 307°
2026-04-20 22:45 -19.91060 -40.97065 23586 ft 420 kts 307°
2026-04-20 22:45 -19.89165 -40.99447 23932 ft 423 kts 306°
2026-04-20 22:45 -19.87497 -41.02009 24279 ft 422 kts 296°
2026-04-20 22:45 -19.86312 -41.04849 24624 ft 420 kts 285°
2026-04-20 22:46 -19.85653 -41.07859 24949 ft 418 kts 274°
2026-04-20 22:46 -19.85376 -41.10940 25274 ft 420 kts 272°
2026-04-20 22:46 -19.85103 -41.14038 25627 ft 423 kts 272°
2026-04-20 22:46 -19.84817 -41.17156 25975 ft 425 kts 272°
2026-04-20 22:47 -19.84521 -41.20291 26283 ft 428 kts 272°
2026-04-20 22:47 -19.84220 -41.23441 26599 ft 430 kts 272°
2026-04-20 22:47 -19.83915 -41.26611 26922 ft 432 kts 272°
2026-04-20 22:47 -19.83616 -41.29795 27232 ft 435 kts 272°
2026-04-20 22:48 -19.83325 -41.32997 27548 ft 437 kts 272°
2026-04-20 22:48 -19.83033 -41.36220 27847 ft 439 kts 272°
2026-04-20 22:48 -19.82740 -41.39459 28124 ft 442 kts 272°
2026-04-20 22:48 -19.82442 -41.42718 28419 ft 445 kts 272°
2026-04-20 22:49 -19.82138 -41.45996 28708 ft 447 kts 272°
2026-04-20 22:49 -19.81828 -41.49290 29006 ft 449 kts 272°
2026-04-20 22:49 -19.81520 -41.52553 29269 ft 451 kts 272°
2026-04-20 22:49 -19.81205 -41.55924 29565 ft 454 kts 272°
2026-04-20 22:50 -19.80895 -41.59265 29826 ft 456 kts 272°
2026-04-20 22:50 -19.80582 -41.62622 30021 ft 458 kts 272°
2026-04-20 22:50 -19.80269 -41.65905 30057 ft 445 kts 272°
2026-04-20 22:50 -19.79957 -41.69136 30057 ft 436 kts 272°
2026-04-20 22:51 -19.79352 -41.75504 30062 ft 432 kts 271°
2026-04-20 22:51 -19.78749 -41.81855 30064 ft 433 kts 272°
2026-04-20 22:52 -19.78140 -41.88216 30067 ft 433 kts 272°